Location: S�tio Afonso Gruber
(26.1760°S, 49.5250°W)
Time: 23:40:31
(UTC+00:00)

Intelsat 5-3 Rocket - Pass Details

Date: 03 October 2020
Orbit: 281 x 6111 km, 23.6° (Epoch: 22 October)

Event Time Altitude Azimuth Distance (km) Brightness Sun altitude
Rises 23:01:54 0° 326° (NNW) 2,881 6.2 -23.4°
Reaches altitude 10° 23:03:52 10° 340° (NNW) 2,331 5.5 -23.8°
Enters shadow 23:06:38 24° 12° (NNE) 1,997 4.8 -24.4°
